This demonstration page uses our WeatherBlox Daily Observations layout. Learn more.

Left ArrowRight Arrow

Hourly Observations for December 2, 2021

Temp ( °F °C ) Dew Point ( °F °C ) Humidity (%) Winds ( mph kmh ) Pressure ( in mb ) Visibility ( mi km ) Precip ( " mm )
12:35 am 00:35 Cloudy 48 9 48 9 100 100 SW 14 22 29.89 1012 4 6 N/A
12:55 am 00:55 Cloudy 48 9 48 9 100 100 SW 10 17 29.89 1012 5 8 N/A
1:55 am 01:55 Cloudy 48 9 48 9 100 100 SW 13 20 29.88 1012 7 11 N/A
2:15 am 02:15 Cloudy 48 9 48 9 100 100 SW 13 20 29.86 1011 5 8 N/A
2:35 am 02:35 Mostly Cloudy 48 9 48 9 100 100 SW 14 22 29.86 1011 5 8 N/A
2:55 am 02:55 Partly Cloudy 48 9 48 9 100 100 SW 12 19 29.86 1011 7 11 N/A
3:15 am 03:15 Clear 48 9 48 9 100 100 SSW 10 17 29.86 1011 7 11 N/A
3:35 am 03:35 Clear 46 8 46 8 100 100 SSW 10 17 29.86 1011 5 8 N/A
4:35 am 04:35 Clear 45 7 45 7 100 100 SSW 10 17 29.83 1010 7 11 N/A
5:15 am 05:15 Clear 45 7 45 7 100 100 SSW 13 20 29.82 1010 10 16 N/A
6:55 am 06:55 Clear 46 8 45 7 93 93 SW 13 20 29.84 1010 10 16 N/A
7:15 am 07:15 Clear 46 8 45 7 93 93 SSW 13 20 29.84 1010 10 16 N/A
7:35 am 07:35 Partly Cloudy 46 8 43 6 87 87 SW 12 19 29.84 1010 10 16 N/A
7:55 am 07:55 Partly Cloudy 46 8 43 6 87 87 SW 14 22 29.84 1010 10 16 N/A
8:15 am 08:15 Mostly Cloudy 46 8 43 6 87 87 SW 14 22 29.84 1010 10 16 N/A
8:35 am 08:35 Mostly Cloudy 48 9 43 6 82 82 SW 14 22 29.84 1011 10 16 N/A
8:55 am 08:55 Partly Cloudy 48 9 43 6 82 82 SW 14 22 29.85 1011 10 16 N/A
9:15 am 09:15 Partly Cloudy 50 10 43 6 76 76 WSW 13 20 29.86 1011 10 16 N/A
9:35 am 09:35 Mostly Cloudy 48 9 43 6 82 82 SW 13 20 29.86 1011 10 16 N/A
9:55 am 09:55 Mostly Cloudy 48 9 43 6 82 82 SW 13 20 29.85 1011 10 16 N/A
10:15 am 10:15 Partly Cloudy 50 10 43 6 76 76 SW 13 20 29.85 1011 10 16 N/A
10:35 am 10:35 Partly Cloudy 50 10 43 6 76 76 WSW 14 22 29.86 1011 10 16 N/A
10:55 am 10:55 Cloudy 50 10 43 6 76 76 WSW 15 24 29.86 1011 10 16 N/A
11:15 am 11:15 Cloudy 50 10 45 7 82 82 WSW 12 19 29.88 1012 10 16 N/A
11:35 am 11:35 Cloudy 50 10 45 7 82 82 WSW 13 20 29.87 1012 10 16 N/A
11:55 am 11:55 Cloudy 52 11 45 7 77 77 SW 12 19 29.85 1011 10 16 N/A
12:15 pm 12:15 Cloudy 52 11 45 7 77 77 SW 12 19 29.85 1011 10 16 N/A
12:35 pm 12:35 Cloudy 54 12 45 7 72 72 WNW 10 17 29.85 1011 10 16 N/A
12:55 pm 12:55 Cloudy 55 13 45 7 67 67 W 12 19 29.85 1011 10 16 N/A
1:15 pm 13:15 Mostly Cloudy 57 14 45 7 63 63 WSW 9 15 29.84 1010 10 16 N/A
1:35 pm 13:35 Sunny 57 14 45 7 63 63 WSW 14 22 29.83 1010 10 16 N/A
1:55 pm 13:55 Partly Cloudy 57 14 45 7 63 63 WSW 13 20 29.83 1010 10 16 N/A
2:15 pm 14:15 Sunny 57 14 45 7 63 63 WSW 14 22 29.84 1010 10 16 N/A
2:35 pm 14:35 Sunny 57 14 45 7 63 63 WSW 13 20 29.84 1010 10 16 N/A
2:55 pm 14:55 Sunny 57 14 45 7 63 63 W 18 30 29.85 1011 10 16 N/A
3:15 pm 15:15 Sunny 57 14 45 7 63 63 W 15 24 29.85 1011 10 16 N/A
3:35 pm 15:35 Sunny 55 13 45 7 67 67 W 15 24 29.85 1011 10 16 N/A
3:55 pm 15:55 Sunny 54 12 43 6 67 67 W 14 22 29.87 1012 10 16 N/A
4:15 pm 16:15 Sunny 54 12 43 6 67 67 W 12 19 29.88 1012 10 16 N/A
4:35 pm 16:35 Sunny 54 12 43 6 67 67 W 12 19 29.89 1012 10 16 N/A
4:55 pm 16:55 Sunny 54 12 41 5 63 63 W 16 26 29.89 1012 10 16 N/A
5:15 pm 17:15 Sunny 52 11 41 5 67 67 W 14 22 29.92 1013 10 16 N/A
5:35 pm 17:35 Clear 52 11 41 5 67 67 WNW 17 28 29.93 1013 10 16 N/A
5:55 pm 17:55 Clear 52 11 41 5 67 67 W 16 26 29.93 1013 10 16 N/A
6:15 pm 18:15 Clear 50 10 39 4 67 67 W 13 20 29.95 1014 10 16 N/A
6:35 pm 18:35 Clear 50 10 39 4 67 67 WNW 14 22 29.97 1015 10 16 N/A
6:55 pm 18:55 Clear 50 10 39 4 67 67 W 12 19 29.97 1015 10 16 N/A
7:15 pm 19:15 Clear 50 10 39 4 67 67 W 9 15 29.97 1015 10 16 N/A
7:35 pm 19:35 Clear 48 9 37 3 66 66 W 9 15 29.98 1015 10 16 N/A
7:55 pm 19:55 Clear 48 9 37 3 66 66 W 8 13 29.99 1016 10 16 N/A
8:15 pm 20:15 Clear 45 7 37 3 76 76 W 8 13 30.02 1017 10 16 N/A
8:35 pm 20:35 Clear 48 9 37 3 66 66 W 9 15 30.02 1017 10 16 N/A
8:55 pm 20:55 Clear 46 8 37 3 71 71 WNW 9 15 30.03 1017 10 16 N/A
9:15 pm 21:15 Clear 46 8 36 2 66 66 WNW 8 13 30.04 1017 10 16 N/A
9:35 pm 21:35 Clear 45 7 36 2 71 71 WNW 8 13 30.05 1018 10 16 N/A
9:55 pm 21:55 Clear 45 7 36 2 71 71 NW 7 11 30.06 1018 10 16 N/A
10:35 pm 22:35 Clear 39 4 36 2 87 87 N 5 7 30.07 1018 10 16 N/A
10:55 pm 22:55 Clear 37 3 36 2 93 93 NNE 3 6 30.06 1018 10 16 N/A
11:15 pm 23:15 Clear 37 3 37 3 100 100 Calm 30.06 1018 10 16 N/A
11:35 pm 23:35 Clear 37 3 37 3 100 100 Calm 30.05 1018 10 16 N/A

Powered by AerisWeather